Content
SEND FEEDBACK

Daily
Averages
Monthly
Summary
United States of America

CHESTERFIELD, MISSOURI


Home > North America > United States > Missouri
Elevation: 559 feet     Latitude: 38 41N     Longitude: 090 31W

WEATHER
 
SELECT A DAY
Number of Records: 205,839;   Date Range: 1/1/95 - 9/30/14
 
SHARE

PRINT THIS DATA

[ ← Previous Day ]
WEATHER ALMANAC - APRIL 16, 2013
[ Next Day → ]
[ °C ]   °F
Weather ElementAverageHighLow
Temperature47.9 °F51.1 °F (12:51 am)46 °F (9:51 am)
Dewpoint44 °F46 °F (12:51 am)42.1 °F (9:51 am)
Humidity86.2 %93 % (6:37 am)80 % (1:51 am)
Barometer30.09 in30.17 in (9:51 pm)29.95 in (12:51 am)
Wind Speed9.3 mph18.4 mph (5:24 am)
Wind Gust31.1 mph (5:24 am)
Weather ElementAverage
Visibility6.5 mi
Wind DirectionESE (109 °)

Weather ElementTotal
Precipitation0.68 in
Heating Degree Days16.5 (Base 65)
Averaged from 51 records on April 16, 2013
WEATHER CONDITIONS BREAKOUT
WIND DIRECTION BREAKOUT
WEATHER BY HOUR - APRIL 16, 2013
[ °C ]   °F
Local TimeTemperatureDewpointHumidityBarometerVisibilityWind DirectionWind SpeedGust SpeedPrecipitationEventsConditions
12:51 AM51.1 °F46.0 °F83 %29.95 in10.0 miNNW (330°)17.3 mph21.9 mphOvercast
1:45 AM50.0 °F44.6 °F82 %29.98 in10.0 miNorth (360°)13.8 mph23.0 mph0.00 inRainLight Rain
1:51 AM50.0 °F44.1 °F80 %29.96 in8.0 miNorth (10°)13.8 mph23.0 mph0.00 inRainLight Rain
2:29 AM48.2 °F44.6 °F87 %29.98 in10.0 miNorth (360°)11.5 mph0.00 inRainLight Rain
2:41 AM48.2 °F44.6 °F87 %29.98 in10.0 miNNE (30°)10.4 mph0.00 inRainLight Rain
2:51 AM48.9 °F45.0 °F86 %29.96 in10.0 miNNE (30°)16.1 mph0.00 inRainLight Rain
3:31 AM48.2 °F44.6 °F87 %30.01 in7.0 miNE (40°)6.9 mph20.7 mph0.00 inRain-ThunderstormLight Thunderstorms and Rain
3:39 AM48.2 °F44.6 °F87 %29.98 in4.0 miNE (40°)10.4 mph0.01 inRain-ThunderstormLight Thunderstorms and Rain
3:46 AM48.2 °F44.6 °F87 %29.99 in3.0 miNNE (20°)9.2 mph0.02 inRain-ThunderstormThunderstorms and Rain
3:51 AM48.0 °F45.0 °F89 %30.01 in5.0 miNorth (360°)9.2 mph0.19 inRain-ThunderstormThunderstorms and Rain
4:06 AM48.2 °F44.6 °F87 %30.03 in5.0 miNNW (330°)8.1 mph0.03 inRain-ThunderstormLight Thunderstorms and Rain
4:51 AM48.0 °F45.0 °F89 %30.03 in6.0 miNNE (20°)9.2 mph0.10 inRain-ThunderstormLight Thunderstorms and Rain
5:24 AM48.2 °F44.6 °F87 %29.96 in5.0 miNE (50°)18.4 mph31.1 mph0.06 inRain-ThunderstormLight Thunderstorms and Rain
5:39 AM48.2 °F44.6 °F87 %30.07 in10.0 miVariable5.8 mph0.07 inRainLight Rain
5:51 AM48.0 °F44.1 °F86 %30.06 in10.0 miNNW (330°)11.5 mph0.07 inOvercast
6:16 AM46.4 °F42.8 °F87 %30.06 in10.0 miNorth (10°)10.4 mphOvercast
6:37 AM46.4 °F44.6 °F93 %30.06 in10.0 miNorth (10°)8.1 mphOvercast
6:51 AM46.9 °F44.1 °F90 %30.07 in10.0 miNorth (360°)9.2 mphOvercast
7:04 AM46.4 °F42.8 °F87 %30.07 in10.0 miNNE (20°)10.4 mph0.00 inRainLight Rain
7:51 AM46.9 °F43.0 °F86 %30.09 in10.0 miNE (40°)9.2 mph0.00 inOvercast
8:51 AM46.9 °F43.0 °F86 %30.12 in6.0 miNorth (350°)9.2 mph0.00 inRainLight Rain
9:12 AM46.4 °F42.8 °F87 %30.11 in4.0 miNorth (10°)9.2 mph0.01 inRainLight Rain
9:19 AM46.4 °F42.8 °F87 %30.11 in3.0 miNorth (10°)9.2 mph0.01 inRainLight Rain
9:51 AM46.0 °F42.1 °F86 %30.12 in3.0 miNorth (10°)8.1 mph0.01 inRainLight Rain
10:10 AM46.4 °F42.8 °F87 %30.12 in4.0 miNorth (10°)10.4 mph0.00 inRainLight Rain
10:40 AM46.4 °F42.8 °F87 %30.12 in4.0 miNNE (20°)10.4 mph0.00 inRain-ThunderstormLight Thunderstorms and Rain
10:51 AM46.0 °F43.0 °F89 %30.16 in4.0 miNNW (340°)8.1 mph0.00 inRain-ThunderstormLight Thunderstorms and Rain
10:56 AM46.4 °F42.8 °F87 %30.14 in5.0 miNorth (360°)8.1 mph0.00 inRain-ThunderstormLight Thunderstorms and Rain
11:51 AM46.0 °F42.1 °F86 %30.12 in7.0 miENE (70°)10.4 mph0.06 inRain-ThunderstormLight Thunderstorms and Rain
12:38 PM46.4 °F42.8 °F87 %30.11 in6.0 miESE (110°)11.5 mph0.00 inRain-ThunderstormLight Thunderstorms and Rain
12:45 PM46.4 °F42.8 °F87 %30.12 in4.0 miNE (50°)6.9 mph0.01 inRain-ThunderstormLight Thunderstorms and Rain
12:51 PM46.9 °F43.0 °F86 %30.14 in4.0 miNNW (340°)8.1 mph0.01 inRain-ThunderstormLight Thunderstorms and Rain
1:02 PM46.4 °F42.8 °F87 %30.12 in3.0 miNorth (10°)4.6 mph0.00 inRainLight Rain
1:24 PM46.4 °F44.6 °F93 %30.13 in6.0 miNNE (30°)6.9 mph0.01 inRainLight Rain
1:51 PM46.9 °F44.1 °F90 %30.14 in9.0 miNorth (10°)6.9 mph0.01 inRainLight Rain
2:35 PM48.2 °F44.6 °F87 %30.13 in4.0 miNorth (360°)9.2 mph0.00 inRainLight Rain
2:51 PM48.0 °F44.1 °F86 %30.14 in4.0 miNorth (10°)9.2 mph0.00 inRainLight Rain
2:56 PM48.2 °F44.6 °F87 %30.13 in3.0 miNNE (20°)8.1 mph0.00 inRainLight Rain
3:45 PM48.2 °F44.6 °F87 %30.13 in4.0 miNNE (30°)9.2 mph0.00 inRainLight Rain
3:51 PM48.0 °F44.1 °F86 %30.13 in5.0 miNE (40°)11.5 mph0.00 inOvercast
4:51 PM48.0 °F45.0 °F89 %30.13 in5.0 miNNE (30°)9.2 mphOvercast
5:51 PM48.9 °F45.0 °F86 %30.13 in5.0 miNE (50°)9.2 mph0.00 inRainLight Rain
6:51 PM48.9 °F44.1 °F83 %30.13 in5.0 miNE (50°)10.4 mph0.00 inHaze
7:10 PM48.2 °F44.6 °F87 %30.13 in7.0 miENE (60°)5.8 mphOvercast
7:51 PM48.9 °F44.1 °F83 %30.16 in7.0 miNNE (30°)8.1 mph0.00 inRainLight Rain
8:43 PM48.2 °F44.6 °F87 %30.14 in7.0 miNE (50°)5.8 mph0.00 inOvercast
8:51 PM50.0 °F44.1 °F80 %30.16 in7.0 miENE (70°)5.8 mph0.00 inOvercast
9:51 PM50.0 °F44.1 °F80 %30.17 in8.0 miENE (60°)5.8 mphOvercast
10:51 PM50.0 °F44.1 °F80 %30.14 in10.0 miENE (70°)6.9 mphOvercast
11:43 PM50.0 °F44.6 °F82 %30.13 in8.0 miENE (70°)8.1 mph0.00 inRainLight Rain
11:51 PM50.0 °F44.1 °F80 %30.14 in8.0 miEast (80°)4.6 mph0.00 inRainLight Rain
Hourly data recorded from KSTL, located miles away from Chesterfield, Missouri







STORIES FROM OUR PARTNERS